Flag for Switzerland Weather past 2 weeks in Kreuzlingen, Thurgau, Switzerland

Now
55 °F

Clear.


Feels Like: 55 °F
Forecast: 48 / 64 °F
Wind: 1 mph from Southwest

Location: Konstanz

Current Time: Oct 20, 2014 at 7:28:55 AM

Latest Report: Oct 20, 2014 at 5:00 AM


Visibility: 17 mi

Pressure: 30.19 "Hg

Humidity: 96%

Dew point: 54 °F

Location of KreuzlingenLocation

Historic Weather in Kreuzlingen — Graph

°F

Kreuzlingen temperature yesterday

Maximum temperature yesterday: 66 °F (at 5:00 PM)
Minimum temperature yesterday: 52 °F (at 8:00 AM)
Average temperature yesterday: 56 °F

Past Weeks' High & Low Weather Summary

 TemperatureHumidityPressure
High76 °F (Oct 9, 5:00 PM)100% (Oct 9, 2:00 AM)30.27 "Hg (Oct 9, 2:00 AM)
Low50 °F (Oct 14, 8:00 AM)49% (Oct 9, 3:00 PM)29.75 "Hg (Oct 12, 5:00 PM)
Average59 °F87%29.94 "Hg
* Reported Oct 5 5:00 AM — Oct 20 5:00 AM, Kreuzlingen, Weather by CustomWeather, © 2014

Note: Actual official high and low records may vary slightly from our data, if they occured in-between our weather recording intervals... More about our weather records

Advertising

Kreuzlingen weather history for previous 24 hours

 ConditionsComfort  
Time TempWeatherWind HumidityBarometerVisibility
5:00 AM
Oct 20
55 °FClear.1 mph96%30.19 "Hg17 mi
4:00 AM55 °FFog.No wind99%30.20 "Hg3 mi
3:00 AM56 °FClear.No wind97%30.21 "Hg7 mi
2:00 AM56 °FFog.No wind96%30.21 "Hg3 mi
1:00 AM56 °FClear.No wind98%30.19 "Hg7 mi
12:00 AM56 °FClear.1 mph97%30.19 "Hg5 mi
11:00 PM
Oct 19
57 °FClear.2 mph94%30.20 "Hg7 mi
10:00 PM58 °FClear.No wind91%30.20 "Hg14 mi
9:00 PM58 °FPassing clouds.2 mph92%30.20 "Hg12 mi
8:00 PM59 °FPassing clouds.2 mph88%30.19 "Hg19 mi
7:00 PM60 °FPassing clouds.3 mph80%30.18 "Hg19 mi
6:00 PM62 °FLow clouds.1 mph79%30.17 "Hg16 mi
5:00 PM66 °FScattered clouds.1 mph71%30.16 "Hg12 mi
4:00 PM64 °FScattered clouds.2 mph73%30.18 "Hg9 mi
3:00 PM62 °FScattered clouds.2 mph80%30.19 "Hg6 mi
2:00 PM62 °FHaze.2 mph79%30.21 "Hg2 mi
1:00 PM57 °FFog.2 mph84%30.25 "Hg3 mi
12:00 PM54 °FFog.No wind94%30.27 "Hg2 mi
11:00 AM53 °FFog.1 mph99%30.26 "Hg1 mi
10:00 AM53 °FFog.1 mph100%30.26 "Hg0 mi
9:00 AM52 °FFog.No wind100%30.25 "Hg0 mi
8:00 AM52 °FFog.No wind100%30.24 "Hg0 mi
7:00 AM52 °FFog.1 mph100%30.24 "Hg0 mi
Weather by CustomWeather, © 2014

See weather overviewHow to use our weather pages